Zurück zum Katalog

OPS 4467 A

AktivMilitärPO
NORAD 812·PAYLOAD·🇺🇸 United States

Gestartet Jun 18, 1964 von Vandenberg Space Force Base

Loading…

Nächste Überflüge (nächste 24 Stunden)

TLE

AktuellSource: Space-Track

Epoche: Sep 14, 2026, 10:41 UTC

1 00812U 64031A   26257.44550166  .00000024  00000-0  33620-4 0  9992
2 00812  99.8324  63.2681 0005359 188.8819 171.2263 14.24611149229007

Verfolge OPS 4467 A in Echtzeit mit AllMySat

Download on the App Store